Lapse_Rate
4.7 4.8 4.8 4.7 4.7 4.8 4.8 5.3 5.4 5.5 5.6 5.4 5.6 5.8 6.0 6.0 5.9 5.8 5.8 5.7 5.9 6.0 6.2 6.1 6.1 6.0 6.0 6.0 5.9 5.9 5.7 5.6 5.4 5.4 5.3 5.4 5.9 5.6 5.4 5.4 5.9 6.4 6.6
4.8 4.8 4.9 4.8 4.8 5.0 5.4 5.5 5.6 5.5 5.5 5.6 5.8 5.9 5.9 5.9 5.9 5.8 5.7 5.8 5.9 6.0 6.0 5.9 5.9 5.9 5.9 6.0 6.0 5.8 5.7 5.6 5.5 5.6 5.5 5.5 5.4 5.5 5.5 5.7 5.9 6.1 6.1
5.1 5.1 4.9 5.0 5.2 5.4 5.5 5.5 5.6 5.6 5.7 5.8 5.9 6.0 6.0 6.0 5.9 5.7 5.7 5.8 5.8 6.0 5.9 5.9 5.9 5.7 5.8 6.1 5.9 5.8 5.8 5.9 5.6 5.6 5.7 5.7 5.4 5.6 5.6 5.7 6.0 6.2 6.0
5.0 5.1 5.1 5.2 5.4 5.5 5.8 5.8 5.8 5.8 5.9 5.9 5.9 5.9 5.9 5.9 5.7 5.7 5.7 5.8 5.9 6.0 5.9 5.8 5.8 5.7 5.7 5.9 6.0 5.9 5.9 5.9 5.8 5.6 5.6 5.9 5.5 5.5 5.5 5.5 5.7 5.9 5.9
5.0 5.1 5.3 5.4 5.5 5.8 5.9 5.8 5.9 6.0 5.9 6.0 5.9 5.9 5.8 5.9 5.9 5.6 5.6 5.7 5.9 6.0 6.1 6.0 5.9 5.9 6.0 5.9 6.0 6.1 6.0 5.9 5.8 5.5 5.7 5.6 5.5 5.4 5.4 5.4 5.6 5.7 5.8
5.3 5.4 5.5 5.6 5.8 5.8 5.8 5.9 6.0 6.0 6.0 6.0 6.0 5.9 5.9 6.0 5.7 5.5 5.7 5.9 5.8 6.0 6.0 6.0 5.9 6.1 6.1 5.9 6.0 6.0 6.2 6.5 5.9 6.1 5.8 5.7 5.5 5.4 5.4 5.5 5.7 5.8 5.7
5.6 5.6 5.6 5.8 5.7 5.7 5.9 6.0 6.0 6.0 6.0 6.2 6.1 6.0 6.0 5.7 5.6 5.6 5.7 5.8 5.8 5.9 6.0 5.9 5.9 6.1 6.1 6.1 6.0 6.1 5.9 5.9 5.6 5.8 6.2 6.0 5.7 5.4 5.4 5.5 5.7 5.8 5.8
5.6 5.7 5.8 5.8 5.7 5.8 5.9 6.1 6.2 6.0 6.0 6.1 6.1 5.8 5.8 5.7 5.4 5.5 5.8 5.9 5.9 6.0 6.1 6.2 6.1 6.1 6.0 6.2 6.3 6.0 5.9 5.8 6.1 6.2 6.1 5.9 6.0 5.8 5.6 5.6 5.6 5.8 5.7
5.5 5.8 5.9 5.8 5.8 5.9 6.0 6.1 6.2 6.1 6.0 6.0 6.0 6.0 5.9 5.8 5.7 5.7 5.9 6.1 6.1 6.0 5.8 5.8 5.9 6.1 6.1 6.0 6.1 6.2 5.8 5.8 5.9 5.8 6.0 6.1 6.2 6.3 6.0 5.7 5.8 5.9 6.0
5.7 5.8 5.9 5.9 6.0 6.1 6.0 6.0 6.1 6.1 6.0 6.3 6.1 5.9 5.9 5.9 5.9 6.0 5.9 5.5 5.5 5.6 5.7 5.6 5.6 5.9 6.0 5.8 5.8 6.1 5.9 5.7 5.8 5.7 5.7 6.0 6.0 6.3 6.3 6.2 6.0 6.0 6.1
5.7 5.8 5.8 5.9 6.1 6.1 5.9 5.9 6.1 6.1 6.1 6.1 5.8 5.8 5.8 5.7 5.6 5.5 5.9 5.7 5.5 5.4 5.4 5.6 5.5 5.6 5.8 5.5 5.5 5.8 5.7 5.6 5.8 5.8 5.9 5.9 6.3 6.6 6.2 6.2 6.3 6.2 6.3
6.0 6.1 5.8 6.0 6.1 6.0 5.9 6.0 6.1 5.9 6.0 5.8 5.9 5.9 6.0 5.7 5.7 5.7 5.6 5.9 5.9 5.7 5.4 5.6 5.4 5.6 5.8 5.8 5.6 5.5 5.8 5.7 5.7 5.6 5.7 5.8 5.8 6.1 6.1 6.3 6.3 6.4 6.2
6.2 6.3 6.2 6.2 6.0 5.9 6.0 6.1 5.9 5.7 5.8 5.6 5.7 5.7 5.8 5.8 5.8 5.8 5.8 5.7 5.9 5.8 5.9 5.7 5.6 5.8 6.0 6.1 6.2 5.8 5.6 5.8 6.0 5.9 5.7 5.6 5.6 5.6 5.9 6.1 6.2 6.4 6.6
6.4 6.3 6.3 6.3 6.2 6.1 6.0 6.0 6.0 5.8 5.7 5.9 6.0 5.8 5.9 5.8 5.7 5.9 6.0 5.7 5.8 6.0 6.1 5.8 5.9 6.0 6.1 6.2 6.1 6.0 5.8 6.2 6.2 6.2 5.9 5.8 5.7 5.6 5.5 5.7 6.0 6.1 6.5
6.4 6.5 6.4 6.3 6.1 6.1 6.2 6.3 6.1 5.9 5.7 5.9 6.1 5.8 6.0 6.1 5.8 5.5 5.5 5.8 5.9 6.2 6.2 5.8 5.9 5.8 5.8 5.9 5.8 6.2 6.5 6.4 6.2 6.2 6.0 5.8 6.0 5.8 5.7 5.7 5.8 6.0 6.3
6.6 6.4 6.5 6.4 6.3 6.2 6.1 6.4 6.3 6.3 6.0 6.0 6.0 6.1 6.2 6.0 6.0 5.8 5.7 5.8 6.3 6.2 6.3 6.0 5.9 5.5 5.2 5.2 5.2 5.8 6.4 6.4 6.3 6.4 6.3 6.2 6.1 6.0 5.9 6.0 5.9 5.9 6.0
6.8 6.7 6.6 6.6 6.5 6.4 6.2 6.3 6.3 6.3 6.6 6.4 6.1 6.0 5.4 6.0 6.0 5.9 6.1 6.2 6.2 5.7 5.9 5.9 5.8 5.8 5.2 5.2 5.2 5.8 5.7 5.9 6.3 6.3 6.3 6.3 6.2 6.0 6.0 6.0 6.0 6.0 5.9
7.0 7.0 6.7 6.6 6.7 6.4 6.3 6.5 6.5 6.6 6.5 6.6 6.4 6.3 6.2 6.1 6.1 6.2 5.9 5.8 5.6 5.7 5.7 5.8 5.7 5.7 5.6 5.6 5.8 5.8 5.5 5.6 6.0 6.1 6.1 6.2 6.3 6.2 6.1 5.9 6.0 5.9 5.9
7.1 6.9 6.7 6.5 6.6 6.7 6.6 6.5 6.4 6.2 6.1 6.1 6.2 6.3 6.2 5.9 5.8 5.7 5.7 5.6 5.6 5.7 5.8 5.8 6.1 6.1 6.2 6.2 6.2 5.8 5.5 5.3 5.5 5.8 6.1 6.4 6.3 6.4 6.4 6.2 6.1 6.0 6.0
6.9 6.8 6.6 6.5 6.3 6.7 6.7 6.7 6.4 6.5 6.4 6.3 6.2 6.2 6.2 5.8 5.9 6.0 6.0 6.0 6.0 6.0 6.0 6.5 6.6 6.3 6.3 6.4 6.2 5.9 5.5 5.4 5.1 5.2 5.6 5.8 5.9 6.0 6.1 6.0 6.1 6.0 5.9
6.7 6.7 6.7 6.7 6.6 6.6 6.7 6.8 6.8 6.6 6.3 6.3 6.2 6.2 6.3 6.2 5.7 5.5 5.9 6.1 6.4 6.3 6.6 6.7 6.4 6.4 6.4 6.5 6.4 6.2 5.6 5.4 5.0 5.1 5.4 5.5 5.7 5.8 6.0 6.0 5.9 5.7 6.0
6.6 6.7 6.8 6.7 6.7 6.7 6.6 6.6 6.7 6.5 6.3 6.3 6.3 6.3 6.2 6.2 6.1 6.1 6.2 6.4 6.5 6.3 6.2 6.3 6.4 6.5 6.5 6.5 6.4 6.4 6.0 5.0 4.6 5.0 5.1 5.1 5.3 5.6 5.8 5.9 5.8 5.7 5.7
6.7 6.8 6.8 6.9 6.7 6.6 6.5 6.4 6.4 6.5 6.7 6.8 6.4 6.2 6.2 6.2 6.2 6.6 6.7 6.4 6.2 6.2 6.2 6.2 6.3 6.3 6.4 6.5 6.6 6.4 6.2 5.9 5.6 5.6 5.6 5.2 5.3 5.6 5.7 5.7 5.8 5.7 5.7
6.7 6.7 6.6 6.7 6.8 6.7 6.6 6.6 6.5 6.7 6.7 6.6 6.4 6.1 6.3 6.0 6.5 6.7 6.5 6.1 6.3 6.3 6.4 6.5 6.4 6.4 6.5 6.3 6.4 6.3 6.4 6.1 6.1 5.7 5.3 5.6 5.6 5.5 5.5 5.7 5.5 5.6 5.7
7.3 7.1 6.8 6.7 6.6 6.7 6.7 6.5 6.5 6.6 6.6 6.6 6.5 6.2 6.2 6.5 6.8 6.6 6.2 6.3 6.4 6.6 6.7 6.4 6.4 6.4 6.2 5.7 5.7 6.2 6.2 6.2 6.1 6.1 5.9 5.5 5.6 5.9 5.8 5.5 5.6 5.6 5.4
7.4 7.1 7.0 6.9 6.7 6.7 6.7 6.6 6.7 6.7 6.8 6.8 6.7 6.7 6.5 6.9 6.6 6.4 6.5 6.4 6.6 6.9 6.7 6.5 6.4 6.3 6.2 5.9 6.0 6.3 6.5 6.4 6.2 6.1 6.0 5.9 5.6 5.4 5.5 5.6 5.6 5.2 5.4
Wind_Speed
1 5 16 18 20 19 20 19 19 21 22 21 21 20 20 19 20 18 17 15 14 14 14 13 12 10 8 10 12 11 10 11 12 12 11 11 10 11 12 14 14 14 15
7 11 17 18 20 20 20 18 20 20 20 20 19 19 18 19 19 16 15 14 13 13 13 12 11 9 9 9 11 9 7 7 10 10 10 10 8 9 9 13 12 12 14
8 12 17 19 20 20 20 19 20 20 19 18 18 17 17 17 16 15 13 13 13 12 12 11 10 8 7 7 7 6 5 4 5 8 9 7 7 9 16 14 14 11 13
14 14 14 19 20 20 20 19 20 19 18 18 17 16 16 15 14 12 12 12 11 11 10 9 7 6 6 5 5 3 3 3 2 3 5 8 9 11 14 12 13 13 12
13 14 17 20 20 21 20 18 18 18 17 17 15 15 14 13 12 11 11 10 10 8 7 7 5 4 4 4 3 3 3 4 8 6 9 9 10 11 13 12 14 13 13
13 15 20 21 21 21 20 18 18 17 16 14 13 13 12 12 10 10 9 9 8 7 5 4 3 2 2 3 3 6 14 21 23 18 6 10 10 14 12 13 12 12 13
12 17 19 21 20 20 19 18 17 16 14 12 12 11 11 10 9 8 7 7 5 4 3 2 1 2 2 1 5 12 26 28 14 6 8 9 11 13 14 12 12 13 13
13 16 18 21 20 18 19 18 17 15 13 12 11 10 9 9 8 8 6 4 4 3 2 2 3 4 4 4 6 16 24 23 19 14 6 9 13 13 13 13 13 12 13
17 14 15 17 19 19 17 17 16 15 13 12 11 10 9 9 7 5 5 3 1 2 3 2 3 4 5 6 5 9 14 19 17 13 13 13 15 13 14 15 13 13 14
12 11 11 13 16 15 15 17 16 15 15 13 12 10 9 7 5 3 3 2 2 1 3 1 2 4 5 5 8 5 9 12 12 14 9 12 14 16 15 15 15 15 15
11 11 11 10 14 15 14 15 16 16 15 14 13 12 10 4 2 4 3 4 3 1 0 2 3 3 8 6 7 7 2 9 6 11 9 12 14 15 15 14 15 15 15
13 12 11 11 13 14 14 14 16 14 15 15 14 14 9 5 5 6 7 3 0 2 3 4 5 3 5 4 3 8 8 11 8 9 8 12 14 14 13 14 14 15 16
15 12 13 12 15 14 12 12 12 13 15 15 17 16 12 9 8 8 4 4 2 1 2 5 6 5 6 2 2 5 12 11 11 10 10 14 15 15 13 15 14 16 14
16 15 14 14 13 15 12 12 12 9 12 10 15 16 12 10 9 6 5 6 5 4 6 9 5 5 6 3 2 3 6 11 12 13 13 13 14 16 15 13 14 14 14
16 15 16 14 12 14 10 11 9 10 10 12 13 13 15 10 5 7 5 4 4 5 8 8 5 2 4 5 5 2 2 8 11 13 14 12 11 13 16 14 13 12 13
17 16 16 15 14 18 10 10 8 10 12 13 13 13 16 13 10 7 4 1 5 9 9 6 3 1 3 4 4 4 4 3 8 8 11 9 9 11 13 14 13 12 13
16 18 18 16 15 14 13 10 10 11 12 12 13 17 17 14 13 10 5 4 7 10 9 3 1 3 3 4 4 5 4 6 7 9 7 7 9 9 12 14 14 16 13
17 18 17 15 15 13 11 8 8 9 9 8 14 16 18 17 14 10 4 3 4 1 4 2 1 1 2 3 2 3 0 4 3 3 5 4 8 8 11 14 15 14 15
19 18 17 16 15 12 9 8 8 8 6 10 10 13 17 17 14 10 6 5 4 4 3 2 0 0 2 3 2 3 1 2 3 7 7 3 4 8 8 7 10 12 11
19 19 18 15 15 13 8 5 4 4 4 6 8 10 17 15 16 10 6 6 6 3 3 1 1 1 1 2 1 3 2 1 4 2 4 7 11 10 8 4 4 5 7
19 19 19 16 14 11 6 6 3 4 3 2 6 13 15 16 14 11 6 5 6 5 5 5 2 1 1 1 2 3 2 2 3 3 5 6 7 11 12 10 10 8 7
20 20 19 18 16 12 10 8 4 4 3 3 5 8 14 15 14 9 6 5 6 4 5 5 3 1 0 1 3 2 1 3 2 2 1 4 5 7 7 8 10 10 9
21 22 20 20 19 16 13 7 2 2 1 2 3 3 6 13 14 11 10 6 5 5 5 4 4 5 3 1 2 4 2 3 1 1 0 1 4 3 4 6 7 8 10
22 21 21 18 19 17 16 13 13 8 8 7 5 4 5 13 12 14 12 9 6 4 6 5 4 3 3 2 1 1 1 3 3 0 2 2 2 2 3 3 8 8 12
22 20 20 20 17 17 17 16 12 10 9 4 4 6 6 7 12 12 13 9 6 5 6 6 5 4 2 2 2 1 2 3 3 3 2 2 2 3 2 3 8 10 12
21 20 19 20 19 17 18 17 17 16 11 7 4 4 5 5 6 9 11 10 8 6 6 5 5 6 4 3 2 2 3 3 2 2 2 2 3 3 3 3 5 8 13
Wind_Direction
251 152 154 139 133 124 117 116 109 101 99 100 100 102 101 104 102 101 99 99 97 93 90 85 82 83 86 93 90 87 88 93 99 98 98 96 100 110 116 107 106 108 109
157 146 141 138 133 128 120 117 109 106 105 107 107 106 110 108 106 108 106 108 102 96 90 86 83 80 77 66 69 82 81 87 90 86 94 97 103 112 130 112 109 113 119
136 148 143 142 136 131 122 120 114 112 115 115 111 113 114 109 111 110 117 112 106 98 90 86 86 81 76 72 77 84 98 95 86 102 96 96 101 94 127 128 119 119 115
143 150 145 146 138 134 126 124 118 121 116 111 113 118 115 112 112 118 116 105 99 93 87 81 72 81 80 81 80 95 110 125 121 134 125 136 104 112 119 128 121 113 108
145 152 152 148 143 139 136 130 125 120 114 116 120 118 117 117 120 117 109 110 103 94 87 83 84 83 84 65 59 72 71 71 52 50 123 131 113 126 120 125 120 122 112
147 154 156 150 147 146 143 134 132 129 129 127 126 123 124 127 125 119 117 109 102 92 80 82 95 103 108 79 26 48 61 57 31 18 98 135 125 128 129 131 132 120 113
146 155 156 155 152 151 147 143 139 140 140 139 134 133 132 135 134 115 114 113 107 96 76 81 69 42 46 60 58 62 87 107 145 304 344 147 138 138 137 128 121 132 124
145 154 159 158 156 155 155 152 150 152 154 148 144 142 148 157 148 140 130 116 106 91 78 58 26 2 355 359 53 100 113 131 154 170 176 178 144 141 136 137 139 136 135
147 148 152 160 164 163 157 161 162 164 165 160 162 164 171 173 164 163 132 115 72 86 62 37 11 352 352 17 25 109 140 140 151 172 186 157 153 151 153 152 151 146 146
147 144 144 156 163 164 163 168 168 172 174 177 177 184 194 188 174 199 183 168 211 15 51 62 325 322 316 356 339 45 184 150 146 159 149 153 165 162 164 162 159 153 152
150 150 155 159 155 158 165 174 174 178 181 184 188 201 207 188 238 214 218 266 266 287 26 275 265 304 307 324 325 1 83 195 157 158 155 168 185 170 172 169 168 166 158
159 164 166 165 164 162 171 178 180 179 186 189 195 206 200 180 203 206 179 214 16 355 294 275 274 294 310 315 16 65 61 139 146 154 169 178 180 169 176 182 173 176 166
169 168 172 170 171 172 176 180 189 190 191 199 202 207 193 164 167 154 184 246 215 323 242 290 296 311 330 239 75 53 91 139 154 166 178 172 184 185 185 179 179 177 171
171 174 175 177 176 182 179 185 193 191 199 208 214 202 192 187 202 198 201 198 176 225 259 260 276 315 288 292 53 122 76 133 161 169 182 178 187 191 196 192 173 180 178
174 177 179 176 179 184 181 191 193 202 200 213 223 200 188 181 190 191 207 176 198 230 236 238 249 217 253 29 350 240 205 137 170 175 190 196 197 197 199 199 184 181 191
178 178 180 181 183 182 187 187 197 202 206 209 217 199 192 179 185 195 198 264 247 245 260 194 209 218 41 12 344 248 298 110 143 179 199 208 199 201 200 205 196 191 203
186 183 180 179 183 187 184 187 198 215 207 207 214 187 187 182 179 180 175 182 198 195 195 180 108 12 38 26 10 335 175 151 152 158 190 213 210 202 203 202 207 203 209
185 183 182 181 180 183 179 181 184 191 181 198 192 191 182 187 175 171 160 179 221 271 152 125 183 337 33 22 346 317 59 152 233 167 146 160 183 198 206 200 209 213 216
182 182 181 187 181 181 179 177 182 183 175 174 188 178 183 191 190 172 162 189 184 158 154 163 81 189 33 3 304 30 93 78 71 91 71 155 185 192 193 202 201 211 213
179 182 181 184 184 183 176 174 178 173 205 192 193 190 182 186 190 171 167 180 168 154 165 126 150 308 169 224 313 23 350 68 75 91 71 65 77 114 137 113 207 203 196
180 181 184 181 186 179 171 176 177 194 197 193 191 196 178 187 192 181 175 184 180 174 186 181 135 180 336 26 61 2 357 80 78 98 94 90 84 103 107 105 104 110 119
179 184 181 185 183 184 182 187 179 175 205 192 184 214 193 189 192 185 177 186 190 170 176 163 146 141 276 162 140 98 51 4 51 76 17 120 129 126 115 115 124 126 116
179 182 182 183 184 183 179 168 120 91 40 175 207 190 204 195 190 180 189 182 193 171 169 175 158 162 171 248 180 144 100 200 217 56 189 181 148 136 144 150 150 159 154
188 183 182 177 180 182 174 177 189 191 195 215 195 182 191 201 187 183 182 184 171 160 165 183 164 163 131 184 1 46 34 138 155 131 336 279 288 169 179 210 170 174 181
186 185 185 180 174 176 180 182 186 193 203 189 172 195 202 188 182 180 182 179 171 163 169 172 165 170 146 124 146 166 44 47 68 128 185 276 319 262 228 206 215 184 197
193 189 186 183 183 174 178 183 188 195 196 196 178 187 196 189 185 188 184 182 175 165 170 180 177 167 149 154 135 164 164 164 191 139 123 196 222 276 247 235 219 222 200